Regional Weather Roundup
Issued by NWS

Home | Current Version | Previous Version | Graphics & Text | Print | Product List | Glossary On
Versions: 1 2 3 4 5 6 7 8 9 10 11 12 13 14 15 16 17 18 19 20 21 22 23 24 25 26 27 28 29 30 31 32 33 34 35 36 37 38 39 40 41 42 43 44 45 46 47 48 49 50
358
ASUS43 KLOT 221600
RWRIL

ILLINOIS REGIONAL WEATHER ROUNDUP
NATIONAL WEATHER SERVICE CHICAGO/ROMEOVILLE IL
1100 AM CDT FRI MAY 22 2015

NOTE: "FAIR" INDICATES FEW OR NO CLOUDS BELOW 12,000 FEET WITH NO
SIGNIFICANT WEATHER AND/OR OBSTRUCTIONS TO VISIBILITY.

* THESE STATIONS ARE NOT UNDER NWS QUALITY CONTROL. THEY ALSO MAY NOT
  REPORT WEATHER SUCH AS PRECIPITATION OR FOG.

ILZ001-002-007-009-015-016-024-221700-
NORTHWEST ILLINOIS

CITY           SKY/WX    TMP DP  RH WIND       PRES   REMARKS
MOLINE         SUNNY     70  43  37 W5        30.20R
STERLING*      SUNNY     70  46  43 NE5       30.21R
$$

ILZ003-004-008-010-011-017-018-221700-
NORTH CENTRAL ILLINOIS

CITY           SKY/WX    TMP DP  RH WIND       PRES   REMARKS
ROCKFORD       MOSUNNY   66  40  38 NE6       30.24R
$$

ILZ005-006-012>014-019>023-221700-
NORTHEAST ILLINOIS

CITY           SKY/WX    TMP DP  RH WIND       PRES   REMARKS
CHICAGO-OHARE  MOSUNNY   61  32  33 NE10      30.22R
CHICAGO-MIDWAY MOSUNNY   63  42  46 E8        30.22R
AURORA         SUNNY     68  41  37 E7        30.22R
WAUKEGAN       SUNNY     55  32  41 N7        30.24R
DUPAGE AIRPORT SUNNY     64  37  36 E8        30.22R
WHEELING       SUNNY     58  33  39 NE10      30.25R
NORTHERLY ISL    N/A     53  40  61 N13         N/A
$$

LMZ740>746-221700-
SOUTHERN LAKE MICHIGAN

STATION/POSITION SKY/WX   TEMP    WIND        PRES    VSBY  WAVE
                          AIR SEA DIR/SP/G                  HT/PER
                          (F)     (DEG/KT/KT) (MB)    (MI)  (FT/S)
SOUTHERN BUOY              40 38  350/  6/  6 1024.8          1
HARRISON CRIB              47      10/ 12/ 13   N/A
BURNHAM HARBOR             53     360/  9/ 14   N/A
CALUMET HARBOR             51     340/  8/ 12   N/A
BURNS HARBOR               49     340/  5/  8 1023.4R
MICHIGAN CITY              52     360/ 14/ 16   N/A
MICHIGAN CITY 6N           49 51   30/ 12/ 14   N/A           1/ 3
ST. JOSEPH                 53 53   20/  8/ 10   N/A           1
$$

ILZ025>027-034>036-040-047-049-050-058-095>099-221700-
WEST-CENTRAL ILLINOIS

CITY           SKY/WX    TMP DP  RH WIND       PRES   REMARKS
QUINCY         SUNNY     69  48  47 SW6       30.23R
$$

ILZ028>032-037-038-041>044-048-051>054-059>061-221700-
CENTRAL ILLINOIS

CITY           SKY/WX    TMP DP  RH WIND       PRES   REMARKS
DECATUR        SUNNY     72  50  45 W5        30.21S
PEORIA         SUNNY     73  48  41 CALM      30.20S
SPRINGFIELD    SUNNY     73  46  38 MISG      30.22R
TAYLORVILLE    NOT AVBL
$$

ILZ033-039-045-046-055>057-062-063-221700-
EAST-CENTRAL ILLINOIS

CITY           SKY/WX    TMP DP  RH WIND       PRES   REMARKS
CHAMPAIGN      SUNNY     72  47  40 VRB5      30.21R
MATTOON        SUNNY     69  48  47 VRB5      30.21S
$$

ILZ079-100>102-221700-
SOUTHWEST ILLINOIS

CITY           SKY/WX    TMP DP  RH WIND       PRES   REMARKS
ALTON          SUNNY     66  50  55 W7        30.26R
BELLEVILLE     MOSUNNY   68  50  53 W7        30.24S
CAHOKIA*       SUNNY     69  48  47 VRB6      30.25S
$$

ILZ064>066-069>071-074>076-080>082-084>086-088>090-092>094-221700-
SOUTH-CENTRAL ILLINOIS

CITY           SKY/WX    TMP DP  RH WIND       PRES   REMARKS
CARBONDALE     SUNNY     67  48  50 SW8       30.27F
MARION         SUNNY     68  50  52 SW9       30.28F
MT. VERNON     SUNNY     66  52  59 SW12      30.26F
$$

ILZ067-068-072-073-078-083-087-091-221700-
SOUTHEAST ILLINOIS

CITY           SKY/WX    TMP DP  RH WIND       PRES   REMARKS
LAWRENCEVILLE  SUNNY     66  49  54 W8        30.25S
$$

ABBREVIATIONS USED IN REMARKS
   TC - TEMPERATURE IN CELSIUS
  WCI - WIND CHILL INDEX
   HX - HEAT INDEX
  VSB - VISIBILITY
$$




USA.gov is the U.S. government's official web portal to all federal, state and local government web resources and services.